User: anonymous   Login
Location: Unspecified
(0.0000°N, 0.0000°E)
Time: 23:47:46
(UTC+00:00)
Language:

IBEX - Orbit

View from above orbital plane
View from above orbital plane
View from above satellite
View from above satellite

Ground track
Ground track

The orbit data is extracted from the following two-line orbital elements,

1 33401U 08051A   16340.82713322 -.00001587  00000-0  00000+0 0  9998
2 33401  46.3131  13.6335 4726500 201.2194   1.6370  0.11259557  3437
Epoch (UTC): 05 December 2016 19:51:04
Eccentricity: 0.4726500
inclination: 46.3131°
perigee height: 89154 km
apogee height: 260399 km
right ascension of ascending node: 13.6335°
argument of perigee: 201.2194°
revolutions per day: 0.11259557
mean anomaly at epoch: 1.6370°
orbit number at epoch: 343

The dashed part of the orbit path shows where the satellite is in the earth's shadow,  

DLR